Vorticity
nan nan nan nan nan nan nan nan nan nan nan nan nan nan nan nan nan nan nan nan nan nan nan nan nan nan nan nan nan nan nan nan nan nan nan nan nan nan nan nan nan nan nan nan nan
nan 7 7 7 7 7 7 7 7 7 7 8 8 7 5 12 19 7 13 11 11 1 6 7 7 5 2 4 10 8 7 9 3 12 9 2 5 4 10 3 9 18 13 10 nan
nan 7 7 8 8 7 7 7 8 8 7 7 7 7 8 11 13 15 18 13 4 4 4 8 6 6 7 6 5 7 3 1 12 10 0 11 5 7 8 12 14 7 4 3 nan
nan 7 8 8 8 8 7 7 8 7 7 7 7 7 14 15 4 14 15 12 4 9 5 1 11 11 5 8 5 7 6 1 18 10 6 15 8 9 10 17 14 6 4 5 nan
nan 7 7 8 8 8 8 8 8 8 8 7 7 11 14 9 10 12 8 4 5 9 11 6 4 8 6 9 9 4 6 14 28 -2 4 11 6 15 18 17 9 6 6 4 nan
nan 7 8 8 8 9 8 8 8 8 8 8 8 12 11 4 17 11 4 4 5 6 -2 2 7 13 10 5 8 6 6 11 11 7 9 4 4 7 10 14 7 4 4 5 nan
nan 7 8 8 9 9 8 8 7 8 9 8 10 12 9 9 11 10 3 3 6 7 7 8 5 1 1 8 10 8 14 15 -3 14 10 1 4 4 10 13 9 5 5 5 nan
nan 8 8 9 9 9 9 8 8 10 10 12 12 11 5 11 11 4 3 6 10 9 18 15 3 -2 5 6 5 12 12 9 4 9 4 7 8 2 9 8 9 13 8 5 nan
nan 8 9 9 9 10 8 9 13 13 15 10 9 7 4 12 15 8 4 5 11 8 16 13 -0 2 6 8 6 9 9 5 8 8 12 5 5 7 4 5 7 10 12 9 nan
nan 8 9 10 9 9 16 20 12 16 18 7 3 5 13 13 12 12 7 5 4 6 6 7 6 4 7 8 10 8 4 7 9 6 9 4 5 5 5 7 9 10 7 9 nan
nan 9 10 10 8 10 17 17 12 15 11 7 4 2 5 12 10 8 11 11 6 6 8 5 7 12 7 3 8 9 8 5 8 11 7 11 7 8 6 3 10 13 7 5 nan
nan 10 10 10 9 13 14 7 12 7 12 13 3 5 7 12 8 11 11 7 9 5 6 9 11 15 9 4 3 5 8 7 13 15 6 11 10 15 8 4 9 3 8 6 nan
nan 11 10 9 13 14 11 4 3 8 17 14 16 7 12 12 9 9 6 6 8 7 9 9 7 10 9 2 6 7 4 9 20 4 3 8 9 13 8 3 4 5 9 8 nan
nan 11 10 12 13 11 8 14 7 4 8 14 10 8 11 7 13 14 6 5 6 8 12 7 6 6 11 18 7 5 11 8 10 8 11 4 8 10 16 9 6 8 4 7 nan
nan 11 12 12 12 9 1 10 12 6 7 15 10 14 15 6 5 11 7 10 12 7 7 5 3 10 14 17 10 4 12 18 6 5 10 5 10 11 12 12 16 17 15 12 nan
nan 11 12 8 9 4 3 14 9 8 9 14 12 8 8 6 8 11 6 7 10 7 7 10 8 11 5 7 10 13 9 7 13 8 9 13 6 10 11 10 12 14 19 20 nan
nan 14 5 6 7 7 15 16 10 5 10 14 10 9 4 4 15 15 9 6 6 5 7 15 14 11 7 8 10 11 10 6 5 13 12 9 6 12 10 11 9 11 10 14 nan
nan 13 8 4 3 8 17 14 8 6 8 12 9 8 4 6 12 12 11 8 8 10 9 6 10 15 12 9 8 5 10 6 9 8 10 11 8 14 14 10 8 8 7 7 nan
nan 8 10 16 13 7 9 9 10 5 11 13 3 7 8 13 6 8 11 14 13 6 7 4 7 10 11 12 7 7 11 10 8 7 10 6 6 11 12 10 13 13 12 7 nan
nan 12 9 20 9 5 10 7 8 1 6 14 11 12 9 7 7 6 11 9 10 11 9 5 12 5 11 13 10 14 3 7 12 13 7 11 11 11 9 8 7 12 10 6 nan
nan 11 14 11 3 8 11 7 8 5 6 9 10 7 11 14 9 5 2 10 12 9 7 9 10 7 8 7 10 7 9 12 16 8 9 9 10 16 11 12 10 8 10 9 nan
nan 6 16 8 5 8 8 8 3 -1 12 17 12 15 13 9 5 7 14 14 11 8 7 8 4 12 8 7 13 12 7 10 8 8 10 11 4 14 20 18 12 10 7 7 nan
nan 8 11 11 7 8 8 8 7 12 14 11 11 13 14 10 13 8 9 13 12 9 9 9 6 6 8 13 14 8 10 13 10 12 10 7 5 10 19 13 11 10 7 7 nan
nan 7 9 8 12 7 9 11 6 12 15 12 8 3 7 9 12 12 15 15 9 7 8 11 14 13 9 4 2 1 9 10 9 6 14 4 10 6 11 11 8 6 8 7 nan
nan 13 10 4 10 12 9 4 7 9 15 6 10 11 8 6 6 11 11 13 13 11 8 8 10 8 8 7 6 9 6 6 10 11 9 14 15 9 8 7 9 8 10 12 nan
nan 8 13 11 15 18 6 8 7 11 7 10 16 7 12 14 8 7 9 9 10 9 6 8 16 10 6 11 11 9 5 8 9 10 12 16 7 13 9 10 12 13 15 14 nan
nan nan nan nan nan nan nan nan nan nan nan nan nan nan nan nan nan nan nan nan nan nan nan nan nan nan nan nan nan nan nan nan nan nan nan nan nan nan nan nan nan nan nan nan nan
CAPE
0 1 0 3 2 2 1 0 1 0 0 0 0 0 0 0 0 0 0 0 0 308 0 762 715 871 230 237 199 185 116 157 370 171 48 2 2 28 10 111 54 37 0 0 17
0 0 0 0 2 2 1 0 1 0 0 0 0 0 0 0 0 0 0 2 351 241 370 651 504 455 334 411 198 231 154 320 428 91 52 8 0 9 33 42 6 0 0 0 0
0 0 0 0 2 2 1 0 1 0 0 0 0 0 0 0 0 0 21 299 655 41 251 23 123 40 153 169 312 250 167 452 447 80 47 62 3 35 0 0 0 0 0 0 0
0 0 0 1 3 2 2 1 1 0 0 0 0 0 0 0 0 0 715 530 668 0 390 711 328 150 133 3 194 323 282 91 509 335 46 21 80 84 0 0 0 0 0 0 0
1 1 0 0 2 2 2 1 0 0 0 0 0 0 0 0 0 20 653 678 3 256 1345 219 198 151 12 105 104 420 570 249 64 130 87 197 251 88 9 0 0 0 0 0 0
0 1 0 0 3 2 1 0 0 0 0 0 0 0 0 0 0 0 0 0 2 304 288 127 150 4 1 319 209 335 69 113 87 82 223 272 387 144 36 0 0 0 0 0 0
0 1 0 3 2 1 0 0 0 0 0 0 0 0 0 0 0 0 0 0 0 6 387 224 573 0 3 347 371 90 34 64 45 56 170 58 28 277 106 48 0 0 0 0 0
0 1 0 3 1 0 0 0 0 0 0 0 0 0 0 0 0 0 0 0 0 0 179 679 441 531 686 373 139 7 0 12 13 88 164 132 6 149 119 46 147 0 0 0 0
0 0 0 4 1 0 0 0 0 0 0 0 0 0 0 0 0 0 0 0 17 61 102 733 372 519 177 0 11 0 2 2 36 19 110 98 259 254 193 242 324 79 0 0 0
0 0 0 3 0 0 0 0 0 0 0 0 0 0 0 0 0 0 0 0 120 286 394 31 20 113 37 60 28 76 41 58 45 52 108 194 241 53 70 234 28 9 19 63 0
0 0 0 1 0 0 0 0 0 0 0 0 0 0 0 0 0 0 0 0 43 164 207 218 1 33 27 36 150 117 76 142 190 119 111 53 81 109 100 29 23 11 41 137 226
0 0 1 0 0 0 0 0 0 0 0 0 0 0 0 0 0 0 0 1 67 65 6 4 5 27 148 118 45 92 95 94 49 185 150 177 160 402 225 49 12 0 3 97 134
0 0 1 0 0 0 0 0 0 0 0 0 0 0 0 0 0 0 0 54 346 307 0 7 37 66 216 106 171 47 41 0 4 206 124 13 0 351 345 114 19 56 9 96 123
0 0 0 0 0 0 0 0 0 0 0 0 0 0 0 0 0 0 0 438 615 423 78 22 110 355 305 322 138 110 29 39 128 121 32 67 7 69 271 253 113 122 145 111 236
0 0 0 0 0 0 0 0 0 0 0 0 0 0 0 0 0 59 9 306 93 0 324 281 0 0 24 35 9 0 0 2 11 0 0 13 0 0 11 78 0 0 47 126 409
0 0 0 0 0 0 0 0 0 0 0 0 0 0 0 0 0 6 164 42 144 71 78 113 0 0 81 151 32 0 0 0 1 0 0 0 0 0 0 0 0 0 138 353 418
0 0 0 0 0 0 0 0 0 0 0 0 0 0 0 0 13 104 181 80 121 0 0 0 0 0 72 84 0 0 0 2 2 2 1 0 0 0 0 0 0 0 5 75 259
0 0 0 0 0 0 0 0 0 0 0 0 0 0 0 0 20 4 0 0 0 0 0 1 10 34 38 2 0 0 0 0 0 0 0 0 0 0 0 0 0 0 38 148 359
0 0 0 0 0 0 0 0 0 0 0 0 0 1 0 0 19 0 0 1 7 0 0 35 46 19 19 21 0 0 0 0 0 0 0 0 0 0 0 0 0 0 102 103 487
0 0 0 0 0 0 0 0 0 0 0 8 32 31 11 6 6 0 3 80 150 28 0 35 9 0 0 0 0 0 0 0 0 0 0 0 0 0 0 0 0 0 115 173 153
0 0 0 0 0 0 0 0 0 0 0 0 0 0 0 18 0 0 4 8 128 58 0 0 0 0 0 0 0 0 0 0 0 0 0 0 0 0 0 0 0 0 153 346 444
0 0 0 0 0 0 0 0 0 0 0 0 0 1 0 0 0 0 14 0 42 28 24 15 0 0 0 0 0 0 0 0 0 0 0 0 0 0 0 0 0 7 464 715 826
0 0 0 0 0 0 0 0 0 0 0 0 0 0 0 0 0 0 0 0 0 0 0 0 0 0 0 0 0 0 0 0 0 0 0 0 0 0 0 0 113 936 1035 936 758
0 0 0 0 0 0 0 0 0 0 0 0 0 0 0 0 0 0 0 0 0 0 0 0 0 0 0 0 0 0 0 0 0 0 0 0 0 0 17 314 846 1001 892 884 875
0 0 0 0 0 0 0 0 0 0 0 0 0 0 0 0 0 0 0 0 0 1 0 0 0 0 0 0 0 0 0 0 0 0 0 0 0 1 5 56 308 797 1016 1106 1177
0 0 0 0 0 0 0 0 0 0 0 0 0 0 0 0 0 0 0 0 0 0 0 0 0 0 0 0 0 0 0 0 0 0 0 0 0 0 0 0 0 2 3 301 1185
0 0 0 0 0 0 0 0 0 0 0 0 0 0 0 0 0 0 0 0 0 0 0 0 0 0 0 0 0 0 0 0 0 0 0 0 0 0 0 3 284 231 55 127 1056